RH
4298 4309 4307 4281 4273 4315 4380 4496 4540 4558 4563 4579 4646 4737 4828 4910 4966 5008 5030 5034 5006 4987 4953 4898 4955 5099 5258 5468 5542 5483 5408 5349 5468 5559 5565 5496 5307 5163 5000 4779 4554 4387 4273 4215 4241 4276 4365 4438 4537 4625 4694 4749 4760 4760 4773 4778 4827 4877 4940 4978 4989 5009 5012 5045 5063 5059 5060 5057 5015
4351 4360 4362 4370 4436 4530 4571 4615 4592 4568 4588 4624 4727 4826 4926 4989 5037 5062 5091 5094 5052 4998 4979 4975 5080 5264 5436 5593 5501 5415 5396 5440 5521 5550 5494 5359 5223 5062 4908 4729 4582 4488 4455 4462 4509 4581 4651 4751 4850 4910 4943 4971 4993 4984 4989 5016 5035 5048 5052 5055 5032 5038 5051 5083 5073 5066 5055 5048 4974
4455 4471 4487 4528 4591 4637 4699 4701 4705 4687 4696 4760 4839 4935 5013 5066 5080 5092 5090 5052 5002 4990 5009 5086 5256 5428 5555 5566 5420 5361 5386 5484 5529 5504 5416 5287 5163 5074 4971 4882 4805 4767 4765 4795 4822 4866 4949 5046 5134 5200 5222 5233 5199 5174 5179 5165 5155 5124 5099 5056 5062 5059 5080 5099 5075 5048 5029 5007 4945
4625 4599 4596 4609 4668 4719 4784 4821 4802 4800 4805 4830 4912 4989 5025 5041 5042 5012 4996 4973 4970 5015 5100 5282 5467 5550 5528 5418 5340 5357 5421 5511 5524 5472 5391 5278 5208 5177 5154 5193 5121 5110 5087 5082 5095 5138 5202 5284 5352 5418 5428 5430 5392 5353 5305 5252 5204 5165 5083 5060 5049 5074 5070 5089 5054 5038 5039 4984 4882
4671 4626 4624 4649 4702 4772 4822 4799 4788 4799 4813 4873 4905 4966 4966 4949 4905 4890 4866 4880 4957 5102 5305 5499 5522 5478 5373 5318 5358 5387 5479 5539 5559 5498 5431 5380 5385 5388 5376 5395 5404 5352 5323 5282 5287 5334 5415 5485 5520 5560 5546 5531 5504 5459 5401 5311 5241 5173 5119 5085 5035 5012 5013 5027 5025 5031 4987 4901 4763
4545 4521 4560 4615 4658 4660 4673 4646 4663 4682 4745 4800 4855 4925 4940 4927 4873 4849 4838 4855 5040 5266 5443 5513 5408 5304 5282 5330 5409 5534 5600 5634 5617 5609 5621 5640 5640 5601 5573 5562 5531 5493 5458 5406 5415 5488 5553 5627 5645 5637 5595 5577 5537 5495 5434 5324 5251 5184 5116 5054 4984 4910 4904 4964 4973 4937 4872 4746 4572
4326 4306 4307 4316 4292 4274 4291 4349 4429 4545 4651 4772 4927 4982 5023 4966 4898 4884 4920 5027 5248 5395 5446 5390 5296 5289 5348 5469 5622 5710 5758 5789 5826 5871 5911 5911 5848 5749 5689 5638 5592 5552 5504 5498 5552 5623 5684 5713 5696 5655 5637 5613 5587 5505 5416 5343 5247 5163 5060 4946 4843 4800 4782 4834 4841 4793 4670 4521 4337
3898 3857 3788 3763 3762 3827 3955 4144 4384 4599 4821 4997 5106 5134 5098 5021 4975 5024 5139 5332 5449 5443 5389 5344 5343 5405 5537 5726 5836 5890 5958 6052 6147 6173 6130 6011 5888 5773 5702 5662 5620 5608 5600 5596 5698 5776 5813 5805 5758 5696 5658 5606 5569 5501 5400 5274 5151 5051 4909 4763 4673 4655 4659 4679 4631 4563 4479 4354 4260
3360 3342 3366 3419 3556 3766 4048 4370 4694 4966 5164 5268 5246 5179 5128 5090 5132 5288 5469 5623 5599 5529 5471 5446 5520 5648 5793 5951 6000 6073 6201 6361 6431 6358 6205 6030 5892 5772 5712 5687 5673 5671 5712 5764 5851 5911 5937 5891 5807 5726 5648 5576 5497 5396 5270 5116 4954 4799 4641 4542 4496 4495 4515 4502 4418 4374 4361 4448 4537
3191 3251 3366 3541 3782 4087 4412 4783 5057 5255 5319 5309 5224 5159 5162 5226 5390 5556 5674 5709 5685 5664 5679 5681 5757 5908 6022 6110 6172 6274 6423 6591 6560 6421 6232 6040 5889 5782 5740 5720 5733 5799 5869 5952 6024 6039 6011 5921 5796 5706 5614 5490 5341 5212 5047 4849 4654 4499 4391 4317 4352 4371 4392 4368 4302 4327 4465 4764 4968
3449 3526 3653 3822 4054 4339 4651 4983 5188 5294 5299 5241 5190 5216 5296 5465 5617 5737 5771 5764 5834 5890 5945 5944 6062 6154 6236 6248 6328 6432 6579 6657 6587 6437 6211 6000 5843 5765 5734 5758 5859 5965 6085 6127 6161 6111 6045 5901 5774 5625 5477 5330 5123 4920 4705 4521 4355 4213 4142 4168 4224 4279 4293 4252 4252 4439 4759 5201 5301
3907 3896 3939 4035 4255 4502 4755 5012 5171 5229 5227 5193 5230 5339 5497 5696 5820 5915 5951 6007 6083 6123 6147 6199 6296 6340 6343 6338 6413 6557 6660 6695 6555 6354 6104 5884 5758 5717 5755 5879 6039 6176 6268 6292 6252 6145 6032 5851 5643 5471 5240 5032 4820 4584 4372 4189 4092 4021 4025 4093 4161 4228 4217 4166 4313 4682 5130 5464 5409
4385 4254 4152 4195 4360 4565 4785 4950 5070 5129 5168 5187 5293 5456 5677 5887 6034 6130 6200 6270 6277 6301 6325 6357 6413 6400 6410 6423 6541 6638 6678 6610 6391 6177 5954 5765 5739 5803 5963 6149 6290 6410 6425 6414 6282 6112 5915 5680 5425 5190 4948 4707 4460 4260 4082 3952 3887 3890 3951 4023 4093 4108 4125 4142 4474 4966 5359 5418 5300
4814 4576 4400 4349 4477 4643 4780 4887 4939 4961 5022 5134 5315 5533 5751 5976 6106 6214 6298 6411 6438 6463 6450 6441 6410 6413 6418 6508 6644 6702 6652 6466 6238 6038 5867 5799 5900 6032 6249 6446 6557 6581 6545 6426 6212 5984 5702 5410 5133 4863 4596 4351 4170 3990 3863 3781 3793 3819 3852 3910 3955 3930 3967 4089 4632 5104 5364 5271 5170
5045 4805 4615 4540 4617 4744 4813 4836 4840 4870 4943 5126 5359 5606 5848 6023 6120 6207 6338 6471 6552 6545 6490 6438 6388 6382 6426 6565 6678 6655 6537 6326 6146 6007 5954 6010 6160 6376 6577 6734 6732 6662 6501 6312 6051 5741 5402 5090 4800 4548 4302 4101 3930 3825 3754 3727 3735 3745 3753 3762 3764 3735 3791 3937 4438 4879 5165 5140 5076
5102 4893 4743 4668 4735 4779 4846 4863 4895 4947 5068 5280 5520 5748 5909 6056 6145 6245 6377 6544 6621 6611 6563 6480 6386 6386 6466 6582 6612 6557 6429 6274 6166 6139 6165 6279 6514 6699 6835 6901 6766 6593 6337 6078 5752 5407 5071 4744 4483 4268 4076 3907 3816 3766 3739 3748 3749 3714 3672 3630 3628 3568 3535 3584 3924 4398 4819 5026 5009
5047 4916 4825 4763 4789 4871 4945 5053 5090 5183 5309 5508 5704 5865 5987 6054 6151 6291 6454 6629 6671 6682 6641 6523 6428 6431 6500 6571 6577 6524 6442 6350 6273 6310 6389 6566 6774 6941 6981 6928 6666 6376 6034 5699 5343 5007 4705 4435 4215 4059 3913 3824 3786 3775 3786 3791 3715 3620 3559 3577 3555 3443 3317 3216 3498 3937 4383 4615 4630
5034 4934 4895 4870 4907 4991 5117 5227 5341 5434 5557 5717 5857 5971 6049 6112 6256 6427 6576 6691 6729 6738 6695 6580 6509 6534 6586 6648 6641 6618 6550 6446 6435 6475 6596 6804 6989 7052 6991 6784 6429 6067 5655 5262 4893 4602 4344 4140 3996 3896 3825 3798 3803 3825 3814 3759 3622 3496 3437 3518 3457 3277 3102 3015 3281 3633 3945 4112 4199
4991 4960 4966 4989 5032 5076 5172 5313 5459 5574 5695 5823 5957 6046 6139 6249 6460 6603 6721 6757 6748 6740 6709 6626 6618 6687 6747 6798 6773 6722 6665 6595 6563 6627 6765 6934 7066 7043 6864 6530 6111 5679 5256 4812 4488 4241 4060 3901 3832 3791 3770 3787 3814 3798 3737 3616 3474 3409 3418 3446 3306 3109 2971 2944 3202 3490 3776 4011 4054
5128 5127 5123 5101 5126 5137 5180 5326 5472 5615 5735 5862 5966 6073 6225 6421 6625 6754 6812 6792 6746 6721 6716 6705 6738 6807 6929 6955 6930 6854 6774 6684 6686 6767 6872 7024 7045 6926 6626 6217 5740 5285 4830 4420 4149 3918 3793 3713 3727 3745 3742 3737 3754 3721 3633 3529 3435 3409 3396 3298 3092 2940 2865 2913 3170 3438 3698 3857 3790
5266 5292 5265 5238 5215 5223 5265 5396 5571 5711 5821 5899 5976 6114 6252 6466 6653 6787 6836 6810 6763 6764 6745 6715 6796 6923 7048 7110 7063 6974 6876 6816 6813 6880 6963 7072 6993 6752 6366 5862 5348 4866 4429 4055 3823 3677 3605 3636 3713 3722 3690 3693 3682 3655 3579 3535 3485 3414 3297 3114 2880 2721 2713 2846 3091 3335 3525 3581 3499
5293 5337 5352 5401 5392 5396 5431 5530 5725 5866 5964 6045 6110 6192 6324 6493 6668 6805 6860 6862 6859 6818 6790 6724 6829 6957 7111 7213 7166 7083 6998 6941 6941 6987 7048 7077 6896 6502 6045 5476 4943 4438 4037 3694 3540 3491 3545 3660 3763 3788 3755 3715 3710 3648 3610 3544 3484 3324 3115 2858 2626 2507 2507 2677 2896 3100 3257 3348 3221
5290 5277 5294 5370 5430 5524 5610 5737 5874 6031 6179 6317 6365 6362 6394 6540 6713 6843 6931 6982 7032 7016 6955 6837 6861 6967 7101 7201 7189 7145 7090 7058 7067 7113 7129 7031 6687 6229 5665 5052 4512 4055 3671 3402 3384 3448 3572 3718 3796 3860 3890 3886 3802 3695 3613 3540 3416 3218 2929 2627 2424 2329 2326 2428 2590 2761 2897 2946 2827
5260 5232 5208 5252 5384 5547 5719 5807 5974 6202 6422 6627 6609 6539 6505 6652 6810 6918 7033 7139 7234 7259 7207 7081 7018 7045 7120 7190 7204 7176 7174 7162 7213 7209 7150 6921 6426 5830 5209 4596 4095 3686 3384 3251 3337 3451 3611 3729 3837 3918 3963 3912 3788 3699 3590 3494 3302 3035 2749 2488 2370 2260 2199 2227 2340 2436 2470 2427 2340
5175 5186 5204 5272 5370 5514 5663 5820 6050 6354 6641 6878 6764 6673 6659 6810 6935 7048 7165 7302 7441 7470 7457 7314 7243 7196 7225 7270 7279 7296 7288 7262 7288 7254 7054 6662 6010 5348 4718 4162 3754 3425 3254 3211 3324 3479 3658 3763 3876 3929 3949 3871 3759 3639 3544 3396 3149 2863 2633 2465 2399 2300 2227 2166 2181 2176 2143 2076 2105
5120 5160 5227 5298 5413 5581 5772 5982 6204 6484 6750 6938 6825 6786 6799 6943 7076 7185 7300 7434 7560 7613 7576 7472 7409 7390 7405 7416 7453 7448 7412 7364 7305 7128 6796 6232 5496 4821 4243 3795 3491 3270 3164 3195 3352 3534 3680 3821 3863 3886 3851 3789 3683 3554 3418 3191 2900 2691 2554 2505 2472 2429 2355 2286 2179 2080 2048 2063 2186
5141 5169 5228 5309 5458 5668 5909 6147 6345 6586 6820 6916 6855 6869 6960 7093 7191 7285 7416 7574 7697 7707 7652 7560 7522 7526 7557 7610 7627 7583 7528 7421 7219 6868 6323 5576 4839 4263 3816 3518 3291 3169 3151 3223 3435 3611 3752 3827 3848 3813 3728 3655 3543 3363 3138 2878 2691 2577 2538 2555 2563 2556 2505 2405 2276 2188 2176 2220 2380
5191 5211 5251 5329 5471 5654 5865 6107 6387 6634 6795 6873 6888 6966 7082 7184 7257 7378 7537 7734 7818 7816 7743 7630 7618 7652 7705 7772 7759 7660 7518 7327 6963 6395 5668 4837 4225 3803 3512 3302 3174 3134 3206 3352 3545 3680 3744 3787 3746 3687 3597 3491 3302 3100 2878 2676 2582 2555 2560 2618 2640 2644 2582 2493 2385 2337 2334 2417 2570
5213 5244 5273 5333 5467 5643 5865 6132 6407 6596 6757 6840 6927 7049 7151 7233 7340 7488 7674 7887 7957 7892 7799 7734 7755 7811 7862 7904 7819 7650 7402 7059 6441 5681 4905 4148 3749 3468 3280 3149 3148 3184 3338 3500 3638 3713 3723 3688 3620 3520 3408 3252 3055 2867 2697 2588 2558 2558 2624 2679 2723 2712 2655 2566 2489 2472 2505 2606 2795
5223 5232 5276 5362 5538 5720 5934 6177 6410 6574 6704 6803 6943 7081 7169 7290 7443 7663 7904 8060 8030 7924 7856 7830 7881 7965 7994 7931 7762 7487 7070 6477 5695 4866 4160 3633 3408 3266 3154 3125 3208 3310 3453 3588 3663 3673 3638 3590 3489 3355 3216 3066 2908 2752 2637 2563 2552 2596 2657 2761 2794 2789 2737 2653 2604 2643 2718 2875 3043
5254 5267 5337 5437 5619 5812 6015 6235 6394 6552 6673 6799 6929 7077 7220 7385 7657 7910 8082 8127 8057 7989 7916 7923 7996 8042 7988 7873 7549 7094 6465 5689 4852 4149 3654 3333 3238 3159 3144 3174 3301 3425 3549 3622 3620 3585 3540 3450 3338 3210 3066 2941 2807 2717 2613 2564 2570 2646 2717 2821 2843 2833 2798 2752 2743 2792 2923 3141 3281
5312 5356 5420 5538 5722 5904 6088 6294 6402 6520 6652 6790 6953 7101 7307 7604 7904 8085 8155 8134 8064 8044 8032 8052 8087 8036 7893 7649 7118 6461 5674 4843 4153 3655 3350 3216 3159 3160 3199 3268 3378 3502 3572 3598 3546 3498 3413 3313 3207 3096 2968 2840 2761 2668 2597 2559 2613 2701 2783 2860 2882 2880 2851 2838 2845 2934 3134 3360 3494
5345 5379 5462 5591 5784 5965 6138 6299 6431 6530 6643 6805 6977 7216 7505 7871 8085 8152 8160 8123 8108 8137 8150 8152 8106 7946 7652 7184 6491 5715 4893 4151 3637 3370 3218 3159 3154 3176 3281 3339 3452 3533 3528 3521 3453 3391 3299 3207 3073 2967 2880 2796 2706 2630 2600 2589 2679 2773 2849 2926 2957 2944 2937 2939 2979 3095 3284 3544 3673
5305 5380 5479 5641 5817 5998 6154 6280 6391 6531 6661 6852 7086 7420 7774 8090 8186 8193 8190 8177 8185 8203 8205 8154 7978 7662 7195 6507 5712 4945 4240 3632 3354 3224 3167 3154 3215 3287 3336 3395 3458 3495 3485 3439 3360 3271 3176 3098 2986 2907 2796 2717 2641 2589 2595 2666 2765 2847 2924 2979 3010 3026 3021 3040 3105 3254 3446 3679 3772
5279 5374 5512 5699 5870 6011 6135 6240 6370 6534 6721 6962 7317 7675 7986 8173 8207 8248 8261 8254 8284 8263 8185 8023 7692 7189 6547 5746 4964 4262 3695 3343 3238 3189 3170 3215 3292 3358 3372 3378 3420 3429 3373 3327 3226 3156 3072 3024 2934 2848 2752 2646 2595 2601 2655 2726 2841 2918 2990 3054 3080 3076 3117 3153 3237 3405 3579 3793 3881
5316 5427 5573 5749 5877 5990 6134 6256 6412 6613 6865 7201 7606 7917 8107 8202 8257 8286 8338 8359 8322 8221 8007 7693 7211 6589 5859 5059 4345 3769 3407 3213 3166 3181 3226 3265 3314 3339 3362 3348 3346 3320 3268 3206 3122 3093 3031 3013 2935 2813 2684 2589 2595 2634 2721 2831 2924 3001 3076 3113 3120 3166 3191 3257 3361 3509 3694 3892 3963
5416 5523 5665 5815 5929 6051 6176 6343 6528 6804 7140 7551 7868 8057 8200 8279 8350 8368 8359 8344 8227 7994 7661 7246 6667 5937 5213 4442 3879 3467 3221 3150 3159 3204 3254 3254 3290 3301 3307 3304 3280 3260 3175 3107 3084 3088 3065 3022 2919 2799 2660 2601 2620 2702 2790 2895 2999 3087 3146 3191 3227 3240 3290 3351 3449 3616 3788 3986 4032
5514 5639 5739 5886 6003 6145 6304 6498 6766 7091 7469 7827 8036 8162 8257 8361 8385 8370 8305 8195 7967 7637 7202 6716 6048 5319 4584 3936 3518 3258 3117 3110 3121 3193 3235 3257 3274 3268 3277 3283 3259 3232 3187 3113 3106 3099 3101 3061 2927 2800 2694 2631 2670 2752 2857 2972 3082 3151 3230 3262 3290 3312 3367 3445 3537 3706 3914 4072 4098
5648 5761 5880 5995 6134 6298 6482 6709 7031 7384 7706 7987 8145 8257 8320 8360 8337 8242 8106 7901 7599 7207 6715 6123 5402 4700 4049 3526 3275 3139 3090 3094 3133 3158 3196 3230 3224 3238 3260 3283 3270 3238 3192 3130 3145 3146 3151 3105 2961 2852 2746 2720 2748 2824 2918 3049 3157 3232 3278 3313 3352 3391 3447 3517 3633 3807 3970 4146 4163
5832 5945 6046 6174 6313 6482 6709 6974 7291 7618 7876 8115 8215 8302 8293 8268 8187 8040 7824 7548 7187 6731 6153 5499 4785 4118 3600 3252 3128 3090 3105 3136 3125 3137 3142 3167 3211 3277 3305 3319 3320 3276 3225 3152 3151 3185 3178 3149 3041 2924 2857 2816 2822 2888 2987 3091 3216 3302 3362 3387 3399 3416 3480 3572 3704 3870 4035 4207 4224
6048 6162 6270 6376 6516 6685 6909 7215 7516 7774 8001 8162 8211 8205 8152 8110 7980 7759 7482 7157 6773 6236 5582 4851 4185 3643 3287 3109 3090 3099 3130 3142 3115 3112 3096 3135 3223 3302 3352 3385 3352 3307 3266 3204 3209 3207 3241 3224 3140 3070 3000 2949 2971 3004 3086 3179 3302 3386 3433 3455 3445 3456 3521 3602 3737 3910 4088 4255 4282